Regional Weather Roundup
Issued by NWS Albany, NY

Home | Current Version | Previous Version | Graphics & Text | Print | Product List | Glossary On
Versions: 1 2 3 4 5 6 7 8 9 10 11 12 13 14 15 16 17 18 19 20 21 22 23 24 25 26 27
000
ASUS41 KALY 260310
RWRALY

NEW YORK STATE HOURLY WEATHER ROUNDUP
NATIONAL WEATHER SERVICE ALBANY NY
1100 PM EDT SAT MAR 25 2017

NOTE: "FAIR" INDICATES FEW OR NO CLOUDS BELOW 12,000 FEET WITH NO
SIGNIFICANT WEATHER AND/OR NO OBSTRUCTIONS TO VISIBILITY.

NYZ032-033-038>043-046>054-057>066-NYZ062>081-082-084-260400-
EAST


CITY           SKY/WX    TMP DP  RH WIND       PRES   REMARKS
ALBANY         CLOUDY    34  26  72 N8        30.46R WCI  27
GLENS FALLS    CLOUDY    30  24  78 CALM      30.46R
POUGHKEEPSIE   CLOUDY    35  32  88 N10       30.42R WCI  27
NEWBURGH       MOCLDY    36  34  93 E7        30.41S WCI  30
MONTGOMERY     CLOUDY    36  32  85 NE7       30.39S WCI  30
WHITE PLAINS   MOCLDY    41  37  86 NE7       30.37R
ISLIP          CLOUDY    42  39  89 NE12      30.38S
NEW YORK CITY  CLOUDY    45  38  76 NE14      30.38R
CENTRAL PARK   CLOUDY    44  39  82 VRB7      30.41R
$$

NYZ005>009-017-018-044>046-055-056-260400-
CENTRAL


CITY           SKY/WX    TMP DP  RH WIND       PRES   REMARKS
FULTON         CLOUDY    35  30  82 NE6       30.39F WCI  30
SYRACUSE       CLOUDY    35  35 100 CALM      30.38F FOG
ROME           CLOUDY    35  35 100 E6        30.42S WCI  30
ELMIRA         CLOUDY    36  33  89 NE6       30.35F WCI  31
BINGHAMTON     FOG       34  34 100 E9        30.31F VSB 1/4 WCI  27
MONTICELLO     CLOUDY    34  34 100 E5        30.36S VSB 1/4 WCI  30
$$

NYZ026>034-041>043-087-260400-
NORTH


CITY           SKY/WX    TMP DP  RH WIND       PRES   REMARKS
WATERTOWN      CLOUDY    29  27  92 NE9       30.42F WCI  20
FORT DRUM      NOT AVBL
MASSENA        CLOUDY    21  18  88 CALM      30.48S
SARANAC LAKE   CLOUDY    16  15  96 N3        30.39R
PLATTSBURGH    CLEAR     21  18  88 CALM      30.48F
$$

NYZ001>004-010>016-019>021-085-260400-
WEST


CITY           SKY/WX    TMP DP  RH WIND       PRES   REMARKS
NIAGARA FALLS  CLOUDY    36  30  79 E16G25    30.33F WCI  26
BUFFALO        LGT RAIN  35  31  85 NE14      30.33R WCI  26
DUNKIRK        CLOUDY    37  35  92 NE14      30.26F WCI  28
JAMESTOWN      PTCLDY    41  36  81 E8        30.21S
WELLSVILLE     CLOUDY    36  34  92 SE8       30.28S WCI  30
ROCHESTER      CLOUDY    36  32  85 E8        30.38F WCI  30
PENN YAN       CLOUDY    35  32  88 NE3       30.35F FOG
$$

             KEY
       WCI = WIND CHILL INDEX
       VSB = VISIBILITY
       HX  = HEAT INDEX
$$




USA.gov is the U.S. government's official web portal to all federal, state and local government web resources and services.